GFSMA_sfc_thetae_000.txt.gz
Theta_e
292 293 293 293 293 293 292 292 293 293 294 296 297 297 296 297 297 299 300 308 312 312 314 317 318 320 322 324 327 337 341 342 343 344 345 345 345 345 345 345 345 344 342
290 291 291 291 291 291 291 291 291 291 292 294 295 295 295 295 296 297 298 300 310 311 311 314 316 318 320 322 323 325 333 341 341 342 343 344 344 343 343 344 344 343 341
290 289 290 289 290 290 290 290 290 291 291 292 292 293 294 295 295 296 297 298 300 307 310 311 313 315 317 319 320 323 324 331 338 340 341 342 343 342 342 343 343 342 340
289 288 288 288 289 289 288 288 288 288 289 289 289 290 292 293 294 294 295 296 298 300 304 308 309 311 313 315 317 319 321 326 331 335 338 340 340 342 341 341 342 342 340
290 288 288 287 288 288 287 288 287 287 287 287 289 290 289 290 291 293 294 296 297 299 298 304 310 311 311 313 315 317 318 320 321 327 333 337 339 340 341 341 341 341 340
289 287 287 287 287 286 286 287 286 287 287 287 290 289 289 290 291 291 292 295 296 297 298 300 301 303 311 312 312 316 318 319 320 323 324 328 336 339 339 340 340 340 340
288 286 286 286 286 285 285 286 286 286 285 287 286 286 287 288 289 291 293 294 296 295 295 297 299 299 301 310 312 314 317 315 319 322 327 325 326 335 339 338 340 340 340
287 286 285 284 284 284 284 285 285 284 285 286 283 283 281 284 288 288 288 290 292 294 296 297 295 296 298 298 300 308 313 316 317 321 319 325 330 331 334 338 339 340 340
286 286 285 284 284 284 283 284 284 283 282 283 284 283 280 279 283 286 287 288 288 289 290 292 295 295 294 297 299 301 306 309 310 311 312 314 319 325 332 336 337 339 340
285 285 285 284 283 283 283 283 285 283 282 281 283 286 284 283 280 280 284 286 287 288 289 291 292 294 293 293 298 299 301 304 307 311 310 313 316 317 322 330 337 337 338
284 284 284 283 282 282 283 283 282 282 282 281 281 281 281 282 283 281 278 281 285 286 288 289 290 290 292 293 292 294 301 304 304 303 308 312 312 311 311 318 328 335 338
282 283 283 282 281 281 281 282 282 281 281 281 281 281 281 280 279 279 279 279 280 283 286 287 287 289 290 291 293 297 299 300 302 304 305 306 308 310 311 313 318 326 333
280 280 281 280 280 280 280 280 280 280 280 279 280 280 281 281 282 281 280 279 278 281 282 284 286 287 289 290 291 293 295 300 302 303 303 304 307 310 311 312 312 317 323
280 280 279 279 279 279 279 279 278 279 279 279 278 279 279 280 281 281 280 278 276 277 280 280 284 285 287 288 290 293 290 294 297 301 304 304 305 309 310 310 310 312 316
279 278 278 277 278 278 278 277 277 277 278 278 278 279 279 279 280 280 280 280 278 274 275 279 279 283 284 285 287 287 289 290 292 294 296 300 302 306 309 309 309 311 314
277 276 277 276 276 276 276 276 276 277 277 277 278 277 277 277 277 278 278 279 279 277 274 278 279 280 282 283 285 285 285 288 290 292 294 296 301 303 304 307 309 310 312
276 276 276 275 275 275 275 274 275 275 273 274 274 274 274 275 274 274 274 275 274 275 273 275 277 278 278 279 281 282 283 283 284 288 289 292 296 297 300 303 306 308 310
275 275 274 274 274 274 273 273 272 272 271 271 272 272 272 273 271 271 271 271 271 272 271 269 272 273 274 276 277 278 280 281 281 284 286 290 294 298 298 300 303 305 307
274 274 273 272 272 272 272 272 271 271 271 270 271 270 270 271 270 270 271 270 271 272 271 269 269 272 272 274 274 275 276 277 280 283 286 288 292 294 296 298 302 304 303
273 272 272 272 271 271 271 271 271 270 270 270 271 271 271 271 271 270 270 270 270 269 269 269 269 270 271 273 274 273 274 277 278 283 286 290 292 293 296 300 301 300 302
272 272 271 270 270 269 270 270 270 270 270 271 272 272 272 272 274 275 273 272 272 271 270 269 269 269 270 271 272 274 274 275 277 280 283 286 289 295 297 298 297 298 301
270 270 269 269 268 270 273 275 274 272 272 271 270 271 272 272 273 275 276 277 276 272 271 271 272 271 271 272 274 273 273 274 273 281 281 281 287 292 293 294 299 300 302
270 269 269 269 269 269 273 274 275 273 272 271 271 271 271 273 273 273 275 276 276 277 277 274 271 272 272 275 275 275 275 275 275 278 279 278 282 284 290 292 296 298 300
269 268 268 269 268 269 273 274 274 273 271 271 272 272 273 273 274 275 274 273 273 274 275 275 274 274 274 276 276 276 275 275 277 277 279 275 279 284 288 290 295 297 299
268 268 268 267 266 267 270 272 274 271 271 271 273 274 274 273 275 277 274 272 272 273 276 278 278 279 280 281 280 277 275 273 272 274 278 279 281 284 287 287 290 296 299
267 268 267 267 267 265 269 272 274 270 268 271 272 273 274 274 275 277 274 272 270 271 273 272 274 275 277 277 279 279 278 275 276 275 278 277 282 285 282 285 288 291 295

GFSMA_sfc_thetae_003.txt.gz
Theta_e
291 292 291 291 290 290 290 290 290 291 292 293 294 294 294 294 294 296 297 304 306 308 311 315 317 319 320 321 322 324 325 326 332 337 340 342 344 345 344 344 345 345 344
290 290 290 290 289 289 289 289 289 289 290 291 292 293 292 293 294 294 295 296 304 306 308 311 314 316 318 319 320 321 323 324 328 329 333 338 340 341 343 343 343 344 343
289 289 288 288 288 288 288 288 288 289 288 290 289 291 291 292 293 293 293 295 297 303 306 308 310 312 313 315 317 318 319 321 322 325 330 331 336 339 340 340 341 342 343
289 287 287 287 287 287 287 287 287 287 286 287 287 288 289 290 290 291 292 293 294 297 301 307 308 309 311 313 315 316 317 318 319 320 323 325 327 332 338 338 339 340 341
288 287 287 286 287 286 286 286 286 285 285 286 287 288 289 288 289 291 291 293 294 296 296 302 307 309 310 312 313 315 317 319 320 320 322 324 324 326 326 336 338 339 339
288 286 286 286 286 286 285 285 284 285 285 285 287 288 287 288 288 287 289 293 294 295 296 296 298 300 308 310 309 311 315 316 315 315 318 324 326 328 327 327 334 337 338
287 286 285 285 285 285 285 285 285 285 284 285 284 284 285 287 287 288 287 287 289 292 294 296 296 297 298 304 306 307 309 313 315 314 316 318 321 320 321 329 330 333 338
286 286 285 284 284 284 284 284 284 283 284 284 282 281 280 284 286 287 287 289 287 290 291 292 292 294 294 295 296 306 307 308 310 312 314 315 315 315 317 319 325 332 335
286 285 284 284 283 283 283 283 283 283 281 282 283 282 279 278 283 285 286 286 286 287 288 290 293 292 292 294 296 297 301 305 305 305 306 308 309 313 314 318 320 322 327
285 285 284 284 283 283 282 282 284 282 282 280 282 285 283 282 279 278 283 285 286 287 287 287 289 291 291 291 295 299 303 301 301 303 305 306 305 307 310 314 314 315 317
284 283 284 283 282 282 282 282 282 281 282 281 281 281 281 281 282 279 277 279 283 284 285 287 288 288 289 290 291 294 299 300 302 303 303 301 303 306 308 309 311 312 313
282 282 283 281 281 281 281 281 281 281 280 280 280 280 280 279 279 278 278 278 279 281 283 285 285 286 287 288 291 294 297 298 298 299 302 305 304 304 305 307 308 308 311
280 280 281 280 280 280 281 280 280 279 279 279 279 279 281 280 281 280 279 278 277 280 280 283 284 285 287 287 289 292 293 295 296 296 298 299 300 301 305 305 306 307 309
281 280 280 279 279 279 279 279 278 278 279 279 278 279 279 280 280 280 279 278 275 277 279 279 283 283 285 286 287 290 288 291 293 294 296 297 298 299 301 303 305 308 312
280 279 279 278 278 278 278 278 277 278 278 279 279 279 279 279 280 280 280 279 277 273 274 277 278 282 283 283 284 284 284 288 290 291 292 293 293 294 297 299 301 304 307
279 278 277 277 277 277 277 277 277 277 277 278 278 277 277 277 277 277 278 277 277 275 272 277 278 279 279 279 280 280 280 283 285 287 289 290 291 292 293 295 297 300 304
278 277 277 276 276 276 276 275 276 276 274 274 275 275 275 275 274 274 274 274 274 274 271 273 276 276 275 274 276 277 278 278 280 283 286 287 288 289 291 292 294 295 298
277 277 276 276 275 275 274 274 273 274 273 272 273 273 272 273 271 272 271 271 271 272 270 268 271 272 272 273 273 274 275 277 277 281 283 285 286 287 288 290 290 292 296
276 276 275 274 274 273 273 273 272 272 272 272 271 271 270 270 270 270 270 270 270 271 271 269 268 271 271 272 272 273 274 275 277 280 283 284 286 288 289 290 292 293 294
274 274 273 272 272 272 272 272 272 271 271 271 271 271 271 271 270 269 270 269 270 269 269 269 268 269 270 272 272 271 271 274 275 278 281 282 284 285 288 290 293 294 294
273 273 272 271 271 271 271 271 271 271 270 270 271 271 272 272 273 274 272 272 271 270 270 270 270 271 271 272 272 273 272 273 275 277 277 278 281 284 284 286 289 292 295
272 272 271 270 269 271 274 276 273 271 272 271 271 272 272 272 273 275 276 277 276 273 272 271 272 272 272 273 273 273 273 273 271 278 277 277 280 280 282 284 287 289 292
271 271 270 270 270 271 276 277 277 274 273 272 272 271 271 273 273 273 275 277 277 277 277 275 272 273 273 274 274 273 273 272 272 276 277 274 277 277 281 283 287 289 292
270 269 269 270 270 271 276 277 276 274 273 272 272 272 272 273 274 274 273 273 274 274 275 275 274 274 274 276 275 274 273 273 274 276 277 272 276 276 280 282 286 289 294
269 269 269 268 269 270 276 276 275 273 273 272 273 273 273 273 275 277 274 273 273 273 277 278 278 279 280 280 280 277 275 272 271 273 277 275 276 276 279 280 283 287 292
268 269 268 267 268 266 273 275 275 273 267 270 272 273 275 274 276 277 275 273 270 270 271 272 274 274 274 274 277 275 275 273 273 272 277 276 277 278 275 279 280 285 290

GFSMA_sfc_thetae_006.txt.gz
Theta_e
291 291 290 290 288 289 288 288 289 289 290 291 291 291 291 291 291 292 293 299 302 306 309 311 314 316 317 318 319 321 322 323 325 329 330 331 332 337 341 342 344 344 344
290 290 289 289 288 288 287 288 288 288 288 289 289 290 290 290 291 291 292 292 300 303 306 309 311 313 314 315 316 318 319 320 321 322 323 325 328 331 333 337 340 341 342
289 288 288 287 287 287 287 287 287 287 287 288 287 289 289 290 290 290 290 291 293 299 303 307 309 310 312 314 315 315 317 318 319 320 320 321 322 323 325 327 329 338 339
289 287 287 286 287 286 286 286 286 285 285 286 285 286 287 289 289 289 290 290 291 293 298 304 307 308 309 311 312 314 316 319 320 321 320 319 319 320 326 326 327 329 337
288 287 286 286 286 286 285 286 285 284 284 285 286 286 287 287 287 290 289 290 291 293 293 300 304 305 308 309 310 310 312 313 313 315 316 321 322 322 324 323 324 330 329
287 286 285 286 286 285 285 284 284 284 284 284 286 286 285 286 286 286 287 289 289 290 292 294 295 296 302 305 307 308 309 311 314 312 312 314 317 320 321 319 321 323 329
286 285 285 285 285 284 284 284 284 283 283 283 283 283 284 285 285 286 285 286 288 289 289 290 291 292 294 299 301 305 308 309 309 307 311 309 311 315 316 316 319 320 322
285 285 284 284 284 283 283 283 283 282 283 283 281 281 279 282 285 285 285 285 285 286 288 289 290 290 289 291 295 301 303 304 305 308 307 306 307 310 311 312 314 316 321
285 285 284 283 283 283 282 282 282 282 281 281 282 281 278 277 280 284 284 285 284 285 286 286 287 287 290 290 292 293 298 300 303 304 304 305 308 309 309 308 310 313 316
284 284 284 283 282 282 282 282 283 282 281 280 281 284 282 281 278 277 281 282 284 284 284 284 285 287 287 288 290 293 295 297 298 299 302 304 305 305 306 307 309 311 312
284 283 283 282 282 282 282 282 281 281 281 280 280 280 280 280 279 278 277 279 282 282 283 283 284 285 286 287 288 290 294 296 297 297 298 299 302 304 306 307 308 309 310
283 282 282 281 281 281 281 281 281 281 281 280 280 280 280 278 278 277 277 277 277 280 282 283 283 284 285 285 289 291 292 293 294 294 295 296 298 300 302 304 306 307 309
282 282 281 280 280 280 281 281 280 279 279 279 279 279 280 280 280 279 278 277 276 278 279 282 283 283 285 285 286 288 288 289 290 291 292 293 295 296 298 301 302 304 305
283 282 281 280 280 280 280 279 279 278 278 279 278 278 279 279 280 280 279 277 274 276 278 277 281 282 282 282 283 284 282 284 286 288 289 290 292 294 295 297 298 299 301
281 280 280 280 279 279 279 278 278 278 278 278 278 278 278 278 279 279 279 278 276 272 274 276 277 280 279 279 280 279 278 280 284 285 286 287 288 290 292 294 295 297 299
281 279 279 279 278 278 278 277 277 277 277 277 278 277 277 277 277 277 277 277 276 272 270 275 275 276 277 277 277 277 277 279 280 281 283 284 286 287 289 291 293 294 296
280 280 279 278 277 277 277 276 276 276 275 275 275 275 275 275 274 274 274 274 273 273 269 273 275 275 274 274 275 275 275 275 275 279 281 283 284 285 287 288 289 291 292
279 279 278 277 277 276 276 275 274 275 273 273 274 273 273 274 273 273 272 271 272 272 270 268 271 272 272 273 273 273 274 276 275 278 281 282 284 285 286 287 289 290 290
278 278 277 277 276 275 275 275 274 273 273 273 273 273 272 272 271 271 271 270 271 271 271 269 269 271 272 273 272 273 274 275 276 279 281 281 282 284 285 286 287 288 288
277 277 277 276 275 274 273 273 273 272 271 272 272 272 272 271 272 271 270 270 270 269 269 269 269 269 271 273 274 273 273 275 276 278 279 280 281 282 284 285 286 287 289
277 276 275 274 273 273 273 272 272 271 271 271 271 272 272 273 274 273 271 270 270 268 269 269 269 271 272 273 273 274 273 273 274 276 276 277 278 279 280 283 283 285 286
275 275 274 273 271 272 277 278 274 272 271 271 271 272 273 272 274 276 277 277 276 272 271 271 272 272 272 273 274 274 273 272 270 276 274 274 277 276 278 280 283 284 285
274 273 273 272 271 272 279 279 277 273 272 272 272 272 272 273 273 273 275 276 277 278 278 275 273 273 273 274 274 273 273 272 271 274 275 272 275 274 277 279 283 284 285
274 273 272 272 272 271 280 281 279 274 273 273 272 272 272 272 273 273 273 273 273 274 275 276 275 275 276 276 276 276 275 275 276 276 276 271 275 274 276 278 282 283 285
273 273 272 271 271 271 280 281 279 273 273 272 273 273 273 273 274 276 274 272 273 274 278 279 279 279 279 279 278 273 270 269 268 270 274 273 274 275 276 277 279 283 285
273 273 271 271 271 270 280 280 279 273 271 271 272 273 275 274 276 277 274 273 272 273 272 271 274 271 273 271 274 272 270 267 267 267 274 273 274 274 272 276 278 280 281

GFSMA_sfc_thetae_009.txt.gz
Theta_e
291 291 290 289 288 288 288 287 288 288 288 289 289 289 288 289 289 290 290 297 302 306 310 312 314 315 316 317 317 319 319 320 320 321 321 322 324 325 326 328 331 337 342
290 290 289 288 287 287 287 287 287 287 287 288 288 288 288 288 289 289 289 290 299 303 307 310 312 313 315 316 317 317 318 319 319 320 320 321 321 322 323 324 325 327 331
289 288 288 287 286 286 287 286 286 286 285 287 286 287 288 288 288 288 289 289 291 298 304 308 309 310 311 313 314 316 315 319 321 321 320 319 320 320 320 328 327 327 330
289 288 287 286 286 286 285 285 285 284 284 284 284 285 286 287 288 288 289 289 290 293 296 305 307 308 309 310 311 311 312 312 312 315 316 317 317 321 323 323 323 324 327
288 288 286 286 286 285 285 285 284 283 283 284 285 285 285 285 286 288 288 288 289 290 291 298 300 302 305 306 307 308 309 314 314 311 310 313 315 316 318 319 320 321 323
288 286 285 285 285 284 284 284 283 284 283 283 285 284 284 285 285 286 285 287 288 288 288 290 290 291 297 300 303 307 311 309 309 307 308 312 310 309 311 315 315 318 320
287 285 285 284 284 284 283 283 283 282 283 282 281 282 283 285 284 284 284 285 286 286 287 288 287 288 288 296 298 302 304 305 306 307 309 308 307 309 311 312 313 312 312
286 285 284 284 283 283 283 283 283 282 282 282 280 280 279 281 284 284 284 285 283 285 285 286 286 286 287 288 292 298 300 302 304 304 305 305 307 310 311 311 310 310 312
285 285 284 284 283 283 282 282 282 282 281 281 281 280 277 277 279 282 283 283 283 283 283 284 285 286 287 286 289 291 296 299 301 302 303 304 304 305 306 308 309 310 311
284 284 284 283 283 282 281 281 282 281 281 280 281 283 281 280 278 276 280 281 282 282 282 282 283 285 285 286 289 291 294 296 296 297 298 299 301 302 304 305 306 308 310
284 283 283 282 282 281 281 282 281 281 280 280 280 280 280 279 279 278 276 278 280 281 282 282 282 283 284 285 285 289 291 291 292 292 293 294 296 298 301 302 304 306 308
283 283 283 282 281 281 281 281 281 281 280 280 280 280 279 278 278 277 276 276 276 278 281 281 281 282 284 284 286 287 287 288 289 289 290 291 292 294 297 299 301 303 304
282 282 282 281 281 281 281 281 280 280 280 279 279 279 280 280 280 279 278 276 275 278 279 280 281 282 283 282 282 284 283 285 286 287 288 289 291 291 293 295 297 299 300
284 283 282 281 280 281 280 280 280 279 279 279 278 278 279 279 280 280 278 277 275 275 277 277 279 280 279 279 280 282 278 282 284 286 287 287 288 289 290 292 294 295 296
283 281 282 281 280 280 280 279 279 278 278 279 278 278 278 278 279 279 279 278 276 272 273 275 276 280 278 278 278 278 277 279 283 284 284 285 286 288 289 290 291 293 295
282 281 281 281 280 280 279 279 278 278 278 278 278 278 278 278 278 278 278 277 277 273 270 275 276 276 276 276 277 277 276 279 279 281 283 284 285 286 287 289 290 291 293
281 281 281 280 280 279 279 278 277 277 277 276 277 277 276 276 275 274 275 275 274 274 270 273 275 275 274 274 275 275 276 275 276 279 281 283 284 285 286 287 288 289 291
281 281 281 280 280 279 278 278 276 277 276 275 275 275 274 275 273 273 273 272 272 272 271 269 272 273 272 273 274 273 275 276 276 279 282 284 284 285 285 286 286 287 288
280 280 280 279 279 278 277 277 276 276 275 275 275 274 273 273 271 271 271 270 271 272 271 270 269 272 272 273 273 275 275 276 278 280 282 282 283 283 284 285 286 286 286
280 279 279 279 278 277 277 276 276 275 274 274 274 273 273 272 272 271 271 271 271 269 269 269 270 271 272 274 275 274 273 276 276 278 279 280 281 282 283 284 284 284 285
280 279 278 278 277 277 276 275 275 274 273 272 272 272 272 273 275 274 271 270 269 268 268 268 269 271 272 273 272 274 273 274 274 276 276 276 277 277 278 280 280 282 283
279 278 277 277 276 276 281 280 276 273 273 272 271 271 272 273 275 277 277 277 272 267 266 267 271 272 272 273 274 273 273 272 271 276 275 275 277 276 277 278 281 282 283
278 277 277 276 275 276 281 282 279 274 273 272 272 272 272 273 273 273 277 278 278 279 279 276 273 273 273 274 274 273 274 273 273 276 274 272 276 275 278 278 282 283 283
277 277 277 276 276 275 282 283 280 274 273 273 273 273 273 273 273 273 273 272 273 274 274 275 274 274 275 276 276 276 274 271 271 273 273 268 272 272 274 276 280 282 283
277 277 277 275 275 275 282 283 280 273 273 273 273 273 273 273 275 277 273 270 272 274 278 279 280 280 280 280 279 273 267 266 266 268 272 269 270 271 273 274 277 281 283
276 276 275 275 275 274 282 283 279 274 272 272 273 273 275 274 276 277 274 268 267 272 274 270 273 274 274 273 274 272 268 265 265 265 272 269 269 270 267 271 273 277 278

GFSMA_sfc_thetae_012.txt.gz
Theta_e
291 291 289 288 287 287 287 287 287 287 287 288 288 287 287 288 288 288 288 299 304 309 313 315 315 316 317 318 318 319 320 320 321 321 321 322 322 322 323 325 326 327 329
291 290 289 287 286 287 286 286 286 286 286 287 287 287 287 287 287 288 288 290 302 306 310 312 312 314 315 316 318 316 319 321 319 319 319 321 322 324 321 327 326 327 330
290 289 288 286 286 286 286 286 285 285 285 286 285 286 287 287 287 288 288 289 291 300 308 310 311 313 314 315 313 314 314 313 315 316 313 316 319 320 323 323 322 322 325
290 288 287 286 286 285 285 284 284 283 284 284 284 284 285 286 287 288 287 288 290 291 299 304 306 308 308 309 310 309 314 317 313 311 310 314 313 313 314 317 319 318 321
289 289 287 286 285 284 284 284 283 283 282 283 284 284 284 285 286 287 286 287 288 288 288 294 296 298 301 305 308 311 312 310 309 309 311 312 311 310 312 313 314 315 314
289 287 286 285 285 284 283 283 283 283 283 282 284 283 283 284 284 284 284 287 286 287 286 286 286 288 296 300 303 305 307 307 308 308 308 308 308 311 312 313 314 313 312
288 287 286 285 284 284 283 282 282 282 282 282 281 282 282 284 283 283 284 283 284 285 285 285 285 286 288 296 300 303 305 307 307 306 306 307 308 307 308 309 310 311 312
287 287 286 285 284 283 282 282 283 281 281 281 280 280 279 280 283 284 284 283 282 283 284 285 285 285 286 286 292 300 303 304 304 303 303 303 304 305 306 307 308 308 311
287 287 285 285 284 283 283 282 282 282 281 280 280 281 278 278 279 281 282 282 281 282 282 283 284 285 285 285 288 292 297 297 298 299 300 300 301 303 304 305 306 307 309
286 285 285 285 284 283 282 282 282 281 281 280 281 282 280 280 277 277 279 280 281 281 280 282 282 283 284 285 289 292 292 292 293 294 295 297 298 300 301 303 304 305 306
285 285 285 284 283 283 282 282 281 281 281 280 280 280 279 279 279 277 276 278 279 280 280 281 281 282 284 285 285 286 289 289 290 291 292 293 295 296 298 300 301 302 303
284 283 284 283 283 282 281 282 281 281 280 280 280 280 279 278 278 277 276 276 276 278 279 280 280 281 283 283 284 285 286 287 288 289 290 291 292 293 295 296 298 299 300
284 283 283 282 282 282 282 281 281 280 280 280 280 279 280 279 280 279 277 276 276 278 278 279 280 282 281 280 280 282 282 284 286 287 288 289 290 291 292 294 295 296 297
285 284 283 282 282 281 281 281 281 280 280 280 279 279 279 280 280 280 278 277 275 276 277 277 279 279 279 279 279 282 278 281 284 286 287 287 288 289 290 292 293 294 295
285 282 283 282 281 281 281 281 281 280 280 279 279 279 279 279 279 279 279 278 277 273 274 275 276 279 278 278 278 277 277 279 283 284 285 286 287 288 289 290 291 293 294
283 282 282 282 281 281 281 280 280 279 279 278 279 278 278 278 278 279 279 278 277 274 272 275 276 275 276 277 278 277 276 279 279 282 284 285 286 288 289 289 290 291 292
283 281 282 282 281 280 280 280 280 279 279 278 278 278 277 278 277 277 277 276 275 275 271 273 275 274 274 274 275 275 276 276 277 281 283 285 286 287 287 288 288 289 290
282 282 282 281 281 281 280 280 279 279 278 277 277 277 276 277 275 275 274 274 273 274 272 270 272 272 272 273 274 274 275 277 277 280 283 285 285 285 286 286 287 287 288
282 282 282 281 281 280 280 280 279 278 278 277 277 276 275 275 273 273 272 272 272 273 272 270 270 272 272 273 273 274 275 276 278 280 282 282 283 284 284 285 286 286 286
282 281 281 281 280 280 279 279 279 277 277 276 276 276 275 274 274 272 272 271 271 270 270 270 270 270 272 274 274 274 274 276 275 278 279 280 281 282 283 284 284 283 283
282 281 280 280 280 279 279 278 278 277 276 275 275 275 274 275 277 275 272 271 270 268 268 268 270 271 272 273 273 274 273 274 275 276 277 277 278 278 279 281 281 282 283
281 280 280 280 278 279 283 283 280 277 276 275 273 273 273 275 277 279 278 276 273 267 262 265 271 272 273 273 274 273 273 273 271 276 275 273 275 275 276 277 280 282 284
280 280 280 279 279 279 284 285 284 278 277 275 274 273 273 274 274 276 279 278 277 278 274 272 272 273 273 274 274 274 274 274 273 274 272 270 273 272 275 276 279 281 282
279 279 279 279 279 279 284 286 284 278 277 275 274 274 273 273 274 274 275 276 276 276 276 276 274 274 274 275 276 276 274 270 271 272 273 268 272 271 273 274 278 280 280
279 280 280 279 279 279 283 286 284 276 276 275 274 274 274 273 276 278 273 272 273 274 277 279 279 280 280 280 278 270 264 261 264 268 271 269 270 270 272 272 274 278 279
279 279 279 279 279 278 282 286 284 275 274 273 274 274 276 275 278 279 272 271 269 272 273 271 274 275 275 273 274 272 266 259 263 262 272 269 269 269 267 271 273 273 273

GFSMA_sfc_thetae_015.txt.gz
Theta_e
303 302 300 297 296 295 295 295 295 294 294 294 293 293 294 294 294 295 298 306 310 313 316 317 318 319 319 319 320 322 324 323 321 320 322 322 325 324 326 326 327 328 330
301 300 296 294 294 294 294 294 293 293 293 293 292 292 293 293 294 295 296 303 307 311 313 315 316 318 319 318 316 317 316 317 318 315 317 320 320 322 323 322 322 323 325
298 297 295 293 293 293 293 292 291 292 292 291 292 292 292 293 294 294 295 296 303 311 311 313 315 315 315 315 314 313 318 318 313 312 314 315 315 315 316 319 319 320 319
297 295 295 293 292 292 292 292 291 290 291 291 291 291 291 293 293 293 295 296 298 298 301 303 304 306 309 310 311 317 314 312 312 314 315 312 312 314 314 315 316 316 316
296 295 294 293 291 291 291 290 289 290 290 290 289 290 291 292 292 291 292 293 293 292 292 296 299 300 302 305 308 309 310 310 311 310 310 310 313 314 314 315 314 314 314
295 294 293 292 290 290 289 289 289 289 290 289 287 289 290 290 290 291 291 291 291 290 291 291 293 295 301 304 306 308 309 309 309 309 309 309 309 309 310 311 312 313 314
295 294 293 291 290 290 289 289 289 289 288 288 288 288 289 289 289 290 290 290 289 289 290 290 291 292 296 300 304 308 309 308 307 305 305 305 306 306 307 308 309 310 310
294 293 292 291 289 289 288 288 289 287 287 287 289 288 286 288 289 289 289 288 287 288 288 289 289 290 292 296 302 301 302 303 302 302 302 302 303 304 305 306 307 307 308
293 293 292 291 289 289 288 288 289 289 287 286 286 290 284 287 286 287 287 288 287 287 288 288 288 289 290 294 295 293 295 296 297 298 298 299 300 302 303 304 305 305 306
292 292 291 290 289 289 288 288 288 288 288 286 286 286 286 287 286 283 285 286 287 286 286 287 287 288 290 293 291 290 291 292 292 293 294 296 297 299 300 301 302 303 304
291 290 290 289 289 288 288 288 287 287 288 287 287 285 285 285 284 285 284 284 285 286 286 286 287 288 289 289 287 288 288 289 290 290 292 293 294 296 298 299 300 301 302
288 288 289 288 288 288 287 287 287 287 287 287 287 286 286 285 284 284 283 283 284 284 285 286 286 287 288 286 285 284 285 287 288 289 290 291 292 293 295 296 298 299 300
287 287 287 287 287 287 287 287 286 286 286 286 286 286 286 285 285 284 283 282 282 282 283 285 286 287 285 284 283 283 282 284 286 288 288 289 290 291 292 294 296 297 297
289 288 287 288 287 286 285 286 286 286 286 286 285 285 285 284 285 285 284 283 280 280 282 282 285 285 283 283 281 281 281 281 284 287 287 288 289 290 291 293 294 295 295
289 288 287 286 285 285 285 285 284 284 284 285 285 284 284 284 285 284 284 285 285 280 279 281 281 283 282 282 281 281 280 279 283 284 285 286 288 289 291 292 292 293 294
287 286 285 285 285 285 285 284 284 284 284 284 284 283 283 283 283 283 284 283 282 283 281 280 281 282 281 279 280 280 279 280 279 282 284 285 287 288 289 290 290 291 292
285 285 285 285 284 284 284 283 284 283 283 283 282 282 282 282 282 282 282 282 281 280 281 277 279 279 278 278 278 279 279 279 280 281 283 285 286 286 287 288 289 289 290
284 284 284 284 284 283 283 283 283 282 282 281 281 281 280 280 281 281 281 280 280 279 278 278 276 276 276 277 277 277 278 279 280 281 283 285 285 285 286 286 287 288 288
284 284 283 283 283 283 282 283 283 282 282 282 281 280 280 280 279 279 279 278 278 277 277 276 275 276 276 277 277 278 278 279 279 281 282 282 283 284 285 286 286 286 286
284 284 283 283 283 282 282 282 282 281 281 281 281 281 280 279 279 278 278 278 277 276 275 274 274 274 274 276 276 276 277 278 278 279 280 281 282 282 283 284 284 283 283
284 284 283 283 283 282 281 281 281 282 281 280 280 280 280 280 281 280 278 277 276 275 274 273 273 273 274 274 275 277 276 277 278 279 279 280 279 279 279 280 280 281 283
283 283 282 282 282 281 285 286 283 281 281 279 278 278 279 279 281 282 281 280 277 273 272 273 273 273 274 276 276 275 275 275 275 280 277 276 277 277 278 279 280 281 283
283 282 282 282 281 282 286 287 286 281 280 280 279 278 277 277 279 279 282 281 280 279 277 274 274 275 276 276 276 275 276 276 275 277 274 273 277 276 278 278 280 281 282
281 281 281 282 281 282 285 287 286 282 280 280 279 278 277 277 278 278 279 278 278 278 277 276 277 278 278 278 277 278 276 274 273 273 274 271 276 275 277 277 279 281 281
280 281 281 281 281 282 285 286 286 283 280 279 278 278 278 276 279 281 278 277 276 276 280 280 280 280 280 280 280 276 272 270 269 271 273 272 273 273 274 275 277 279 280
279 280 280 281 281 281 284 285 286 284 279 278 278 277 278 277 280 281 277 276 275 276 276 278 278 279 281 278 277 276 272 268 268 267 273 271 272 272 270 274 276 276 276

GFSMA_sfc_thetae_018.txt.gz
Theta_e
315 313 315 315 314 310 306 302 302 301 300 299 299 299 299 300 300 301 306 307 312 314 317 318 319 320 320 321 324 324 322 321 320 320 321 322 323 325 323 323 324 326 326
313 311 312 311 309 306 303 302 301 300 300 299 298 298 298 299 300 301 305 308 310 313 313 316 317 319 321 317 318 316 320 318 315 317 317 317 318 319 321 320 321 320 319
310 308 309 307 305 302 301 300 299 299 298 298 297 297 298 298 299 299 302 305 311 311 314 316 318 317 317 315 314 319 318 313 312 315 315 314 315 316 316 317 317 317 317
308 307 306 304 302 300 299 299 298 297 298 297 297 296 297 298 298 299 300 305 307 307 305 306 307 309 310 311 318 316 313 313 316 314 312 312 314 315 316 316 315 315 315
307 305 305 303 300 299 298 298 297 297 297 296 296 296 297 297 296 297 299 299 297 299 300 301 300 302 303 308 310 311 311 312 310 310 311 312 311 311 311 312 313 314 315
306 304 303 302 299 298 297 297 296 296 297 296 292 294 296 297 296 296 296 295 295 295 296 296 299 301 303 306 308 310 311 310 310 308 307 307 307 308 309 310 311 312 312
305 304 303 301 298 297 297 297 296 295 294 295 295 293 293 294 294 295 295 295 293 294 294 295 296 299 302 304 308 310 308 306 305 304 304 304 305 305 306 307 308 309 310
305 303 302 300 298 297 297 296 296 294 295 295 295 295 291 291 293 293 294 292 292 293 292 293 294 295 299 304 301 301 301 301 301 301 301 301 302 303 304 305 305 306 307
304 302 301 300 298 298 297 297 296 295 294 293 295 297 291 293 291 292 292 292 291 292 292 292 292 293 297 300 295 295 294 295 297 298 299 300 301 301 302 303 304 305 305
303 302 301 300 299 298 297 297 296 297 297 293 292 292 293 295 293 288 291 291 291 290 291 291 292 292 296 297 291 290 290 292 292 293 295 296 297 299 300 301 302 303 304
301 300 300 299 298 297 298 297 295 296 296 297 294 292 292 292 292 294 289 288 290 291 290 291 292 292 294 294 291 288 288 289 290 291 292 293 294 296 298 299 300 301 302
298 299 298 298 297 297 296 296 295 295 295 296 296 294 293 291 291 291 291 290 289 288 289 290 290 292 292 291 287 284 285 287 288 289 290 290 292 293 295 296 298 299 300
296 296 297 296 296 296 296 296 294 294 294 294 295 294 295 295 294 293 293 289 287 287 287 290 290 291 290 290 288 283 282 284 286 288 288 289 290 291 292 294 296 296 297
297 297 295 295 295 295 295 294 293 293 293 293 294 295 293 294 293 292 291 289 285 285 286 287 289 290 289 288 285 282 285 282 284 286 287 288 289 290 291 292 293 294 295
296 296 295 294 294 294 293 293 292 291 292 292 293 293 292 292 292 292 291 293 292 285 284 286 285 289 288 287 285 284 284 282 284 284 285 286 287 289 290 291 291 292 294
294 293 294 293 293 293 292 291 291 291 291 291 291 291 291 291 290 290 290 290 291 292 288 288 286 287 287 285 284 283 283 280 283 283 284 285 287 288 288 289 290 291 292
292 292 292 291 291 291 291 290 290 290 289 289 288 289 289 290 289 288 289 288 287 289 290 284 286 286 285 284 281 282 283 283 284 282 283 285 287 287 287 287 288 289 290
291 290 290 289 289 290 290 289 289 288 288 287 287 287 288 286 288 288 287 287 286 286 287 282 282 281 281 282 282 281 281 281 283 283 283 285 286 286 286 286 287 288 288
289 290 288 288 288 288 288 288 287 288 287 286 287 285 285 285 285 286 285 285 285 282 285 285 280 281 280 280 279 280 281 282 282 282 283 284 284 284 285 286 286 286 286
288 287 288 287 287 287 286 286 285 286 286 285 286 285 284 283 284 284 283 284 284 284 283 281 281 278 278 279 280 280 279 282 282 282 282 282 283 283 284 284 284 284 284
286 287 286 286 285 285 285 285 284 285 284 284 284 284 284 284 285 285 283 283 283 283 282 281 279 278 277 277 277 280 280 281 282 282 282 283 283 283 283 283 282 283 283
285 286 285 285 284 284 286 288 286 284 284 283 283 284 283 283 284 287 287 286 284 282 280 280 279 277 278 278 279 279 278 278 280 283 281 281 282 281 281 282 283 283 283
283 283 284 284 284 285 287 287 287 285 283 283 283 282 281 281 282 283 286 286 284 285 284 282 280 279 278 279 280 278 278 278 279 280 280 277 280 279 281 280 282 282 283
281 281 282 283 284 284 286 287 287 286 284 284 284 283 282 281 281 281 282 282 282 281 282 280 281 281 281 281 280 280 280 280 280 278 278 273 280 278 281 281 282 282 282
280 281 282 282 283 283 286 286 286 285 284 284 283 283 283 281 282 284 281 281 280 280 283 282 281 282 282 283 281 280 277 275 274 275 276 274 276 276 277 278 280 281 281
277 279 280 282 282 283 284 285 285 285 284 284 283 282 283 282 284 283 282 281 279 278 278 278 278 281 282 281 281 280 278 274 274 273 276 273 275 274 274 277 278 279 278

GFSMA_sfc_thetae_021.txt.gz
Theta_e
323 320 318 320 320 317 314 310 307 305 304 302 302 301 301 302 302 303 307 309 313 316 316 318 319 320 321 324 326 324 323 320 320 322 321 322 324 323 323 324 323 323 323
322 318 317 318 317 315 311 307 305 304 304 303 301 300 300 301 301 302 306 309 314 316 314 316 317 319 319 320 318 320 320 317 318 318 318 318 319 320 320 320 319 319 320
320 316 315 315 314 312 308 305 304 304 302 301 300 299 300 300 301 301 304 309 311 310 315 319 320 319 318 313 316 321 316 313 314 317 314 315 316 317 317 318 317 317 317
318 315 312 312 312 307 304 303 302 301 301 300 299 299 299 300 300 300 302 308 311 310 307 309 311 311 311 312 319 317 313 317 315 313 313 316 316 316 314 314 315 316 317
317 312 310 310 309 304 302 301 300 300 299 299 299 299 299 299 299 299 301 304 302 305 304 301 302 304 305 311 312 313 312 312 311 312 311 310 311 311 312 312 312 313 314
315 311 309 308 305 302 301 301 300 300 300 299 294 296 298 299 299 299 299 298 298 298 300 299 301 302 305 307 309 311 311 311 308 307 308 307 308 309 309 310 310 310 311
314 311 307 306 303 301 300 300 300 299 299 298 296 295 295 296 296 297 298 297 295 296 297 298 299 302 304 306 309 311 310 307 305 304 304 305 305 306 307 307 308 308 309
313 309 307 304 302 300 300 300 299 297 298 297 296 296 291 291 294 295 296 295 294 295 294 294 296 298 303 303 304 304 303 302 302 301 301 302 303 304 305 306 306 307 307
312 309 306 304 302 300 299 299 299 297 295 296 299 299 295 294 291 294 293 294 293 293 293 293 294 296 300 298 298 294 295 296 298 298 299 300 301 302 303 304 304 305 306
310 309 306 305 302 300 299 299 298 298 297 293 295 296 298 298 293 287 292 292 292 292 292 293 293 294 298 297 293 290 291 292 292 294 295 296 298 299 301 302 302 303 304
306 307 306 304 302 300 299 298 297 297 297 296 294 294 294 294 296 295 288 289 291 291 292 292 292 293 296 294 292 288 289 290 290 291 292 293 295 296 298 300 301 301 302
303 303 304 303 302 300 299 298 297 296 296 297 296 296 293 292 291 292 293 290 288 290 291 291 291 292 294 294 291 287 287 288 289 290 290 290 292 293 295 297 298 299 300
301 300 301 301 300 300 299 298 297 296 296 295 296 295 295 295 296 294 294 290 289 289 289 290 291 292 292 292 288 287 285 286 288 289 289 289 290 291 292 294 295 296 297
300 301 299 299 299 299 298 297 296 296 295 295 295 296 295 295 295 294 292 290 287 286 287 287 290 291 291 290 289 285 285 285 286 288 288 289 289 290 291 293 293 294 295
297 297 298 297 297 297 296 296 295 294 294 294 294 294 294 294 294 294 294 292 290 284 284 287 286 290 290 289 286 283 285 286 286 287 288 288 289 290 291 292 292 293 294
294 294 295 295 295 295 294 294 293 293 292 292 293 292 292 292 293 293 292 292 292 291 287 288 287 288 289 287 287 284 284 286 285 286 287 287 288 289 290 290 291 291 292
292 291 292 292 292 292 293 293 292 291 291 291 291 291 291 291 291 290 290 290 288 289 291 284 287 288 287 285 283 283 284 282 283 286 286 287 288 289 289 289 289 290 290
290 290 290 289 290 290 291 290 290 289 289 289 289 289 289 289 289 289 288 287 287 287 288 282 283 284 284 285 282 280 280 281 283 286 286 287 288 288 288 288 288 289 289
287 289 288 288 288 288 289 289 289 288 289 289 289 288 287 288 287 288 287 287 286 283 286 284 281 282 282 283 281 281 281 281 281 284 286 286 287 288 287 288 288 288 287
285 286 286 286 287 287 287 287 287 287 287 288 288 288 288 287 287 287 286 286 286 284 284 284 280 280 279 280 280 278 278 280 280 281 283 284 285 286 286 287 287 286 285
284 284 284 285 285 286 285 285 286 286 285 286 287 286 287 287 287 288 286 286 285 285 283 282 280 278 278 277 277 279 279 280 280 282 280 281 281 281 282 285 284 284 284
282 282 282 283 283 284 287 288 287 285 285 284 284 285 285 285 286 289 290 290 287 285 283 282 281 279 278 278 278 278 279 279 277 283 281 280 281 281 281 281 284 284 284
280 280 281 282 282 283 286 287 288 286 285 284 284 284 284 284 284 284 288 289 289 290 289 284 283 281 279 279 279 279 279 279 280 280 281 279 280 278 280 280 284 284 284
278 278 279 280 281 282 285 286 287 286 285 285 285 284 283 283 284 283 283 284 285 285 286 286 285 284 282 281 281 281 281 281 280 278 279 275 279 277 279 280 283 284 284
276 276 277 277 278 280 283 284 284 284 284 284 285 285 284 284 285 287 282 282 283 284 286 289 287 288 286 285 284 281 278 277 276 276 278 276 277 277 278 277 279 282 284
275 275 275 276 276 277 281 283 283 283 283 283 284 284 285 285 286 287 283 282 281 282 282 282 282 284 284 284 285 281 280 277 276 274 277 274 275 276 274 278 279 279 280